FENGYUN 1C DEB

Satellite information

Favourite Embed

Satellite Type and Status

DEBRISIN ORBIT

Key statistics

Satellite FENGYUN 1C DEB at a glance.

Uptime

9555

Days in orbit

Revolutions

≈ 14.4

Per day

Orbit

SSO

Sun Synchronous Orbit

Inclination

98.8

Latest

Satellite identification and parameters

Extended collection of information and parameters for FENGYUN 1C DEB.

Object identification

Identified? True

Debris? True

Object name: FENGYUN 1C DEB

International designator: 1999-025BJV

Object number (NORAD): 31191

Object ID (CCSDS): 31191

Country: PEOPLES REPUBLIC OF CHINA (PRC)

Current information (Y/N): Y

RCS size: SMALL

Orbital parameters

Period: 99.98 minutes

Inclination: 98.795 deg

SMA: 7135.705 km

Apoapsis: 823.799 km

Periapsis: 691.341 km

RAAN: 83.7908 deg

Eccentricy: 0.0092814

Argument of periapsis: 309.9815 deg

Mean anomaly: 49.3249 deg

Mean motion: 14.40281706 rev/day

Mean motion (dot): 0.00000721 rev/day2

B* drag term: 0.00023153 1/REarth

Two-line elements (TLE)

Creation date: July 6, 2025, 6:05 p.m.

Reference frame: TEME

Reference center: EARTH

Epoch: July 6, 2025, 3:55 a.m. UTC

TLE line 0: 0 FENGYUN 1C DEB

TLE line 1: 1 31191U 99025BJV 25187.16355021 .00000721 00000-0 23153-3 0 9993

TLE line 2: 2 31191 98.7950 83.7908 0092814 309.9815 49.3249 14.40281706957150

Live tracking on map

Real-time ground track for satellite FENGYUN 1C DEB.

In-orbit conjunctions

A list of the most updated potential collisions computed for object FENGYUN 1C DEB.

Target Orbit TCA Probability of collision Miss distance Type
FENGYUN 1C DEB SSO 2025-06-01 01:11:54 0.0004841376 45.0 (m) DEBRIS
ARIANE 5 R/B SSO 2025-02-18 14:35:15 0.0001567935 319.0 (m) ROCKET BODY
COSMOS 2251 DEB LEO 2024-06-06 05:08:19 0.0007391593 49.0 (m) DEBRIS

Associated space launch

Chinese polar orbiting meteorological satellite

FENGYUN 1C DEB was lifted into orbit during the mission ‘Long March 4B | Feng Yun 1C’, on board a Long March 4B space rocket.

The launch took place on May 10, 1999, 1:33 a.m. from Launch Complex 7.

For more information about the launch, click the button.

Launch to space Long March 4B | Feng Yun 1C
Long March 4B | Feng Yun 1C

Agency: N/A

Status: Launch Successful

Launch date: May 10, 1999, 1:33 a.m. UTC

Rocket: Long March 4B

Launch pad: Launch Complex 7

Location: Taiyuan Satellite Launch Center, People's Republic of China

...

Latest news about this satellite

There are no fresh news available about this satellite. Check back as we update our databases every day.


Newsletter sign-up

Weekly statistics, charts and insights to help you stay on top of the space industry.